This is the latest recevied weather packets stored in our database for station/object HB9TVK-13. If no packets are shown the sender has not sent any weather packets the latest 10 day(s).
| Time | Temp. | Humidity | Pressure | Rain* | Wind** | Luminosity | Snow |
|---|---|---|---|---|---|---|---|
| 1777866437 | 10° C | 86% | 1016.1 hPa | 0 mm | - | - | - |
| 1777865837 | 10.56° C | 85% | 1016.2 hPa | 0 mm | - | - | - |
| 1777865237 | 11.11° C | 84% | 1016.3 hPa | 0 mm | - | - | - |
| 1777864637 | 11.11° C | 84% | 1016.3 hPa | 0 mm | - | - | - |
| 1777864035 | 11.11° C | 83% | 1016.3 hPa | 0 mm | - | - | - |
| 1777863435 | 11.11° C | 81% | 1016.5 hPa | 0 mm | - | - | - |
| 1777862837 | 11.11° C | 81% | 1016.5 hPa | 0 mm | - | - | - |
| 1777862237 | 11.11° C | 81% | 1016.5 hPa | 0 mm | - | - | - |
| 1777861637 | 11.11° C | 81% | 1016.4 hPa | 0 mm | - | - | - |
| 1777861037 | 11.67° C | 81% | 1016.5 hPa | 0 mm | - | - | - |
| 1777860437 | 11.11° C | 82% | 1016.6 hPa | 0 mm | - | - | - |
| 1777859835 | 10.56° C | 84% | 1016.6 hPa | 0 mm | - | - | - |
| 1777859236 | 11.11° C | 83% | 1016.5 hPa | 0 mm | - | - | - |
| 1777858636 | 11.11° C | 81% | 1016.5 hPa | 0 mm | - | - | - |
| 1777858036 | 11.11° C | 84% | 1016.6 hPa | 0 mm | - | - | - |
| 1777857437 | 11.11° C | 84% | 1016.5 hPa | 0 mm | - | - | - |
| 1777856837 | 11.67° C | 82% | 1016.6 hPa | 0 mm | - | - | - |
| 1777856238 | 11.67° C | 80% | 1016.6 hPa | 0 mm | - | - | - |
| 1777855635 | 11.67° C | 82% | 1016.5 hPa | 0 mm | - | - | - |
| 1777855036 | 11.11° C | 83% | 1016.6 hPa | 0 mm | - | - | - |
| 1777854436 | 11.11° C | 82% | 1016.6 hPa | 0 mm | - | - | - |
| 1777853837 | 11.11° C | 82% | 1016.8 hPa | 0 mm | - | - | - |
| 1777853237 | 10.56° C | 85% | 1016.7 hPa | 0 mm | - | - | - |
| 1777852637 | 10° C | 84% | 1016.8 hPa | 0 mm | - | - | - |
| 1777852038 | 10.56° C | 84% | 1016.8 hPa | 0 mm | - | - | - |
* Rain latest hour (hover to see other rain measurements)
** Current wind speed in m/s (hover to see current wind gust speed)